Tracking 29781 objects as of 15-Oct-2024
HD Live streaming from Space Station
objects crossing your sky now

DELTA 1 DEB

Track DELTA 1 DEB now!
10-day predictions


NORAD ID: 21290
Int'l Code: 1975-052AB
Perigee: 1,096.1 km
Apogee: 1,904.0 km
Inclination: 99.5 °
Period: 115.8 minutes
Semi major axis: 7871 km
RCS: 0.0116 m2 (small)
Launch date: June 12, 1975
Source: United States (US)
Launch site: AIR FORCE WESTERN TEST RANGE (AFWTR)

Note: This is SATELLITE DEBRIS
Your satellite tracking list
Your tracking list is empty




NASA's NSSDC Master Catalog

Two Line Element Set (TLE):
1 21290U 75052AB  24287.99174037  .00000130  00000-0  73223-3 0  9990
2 21290  99.5153 304.6029 0513190 354.4273  31.7870 12.43240903516881
Source of the keplerian elements: AFSPC